Weather History for Amritsar, India

Change the Weather History Date:

Thursday, May 23, 2013

  Actual Average Record
Temperature  
Mean Temperature 96 °F -  
Max Temperature 116 °F 100 °F 116 °F (2013)
Min Temperature 77 °F 77 °F 68 °F (2008)
Cooling Degree Days 32    
Growing Degree Days 46 (Base 50)    
Moisture  
Dew Point 52 °F    
Average Humidity 25    
Maximum Humidity 45    
Minimum Humidity 5    
Precipitation  
Precipitation 0.00 in - - ()
Sea Level Pressure  
Sea Level Pressure 29.47 in    
Wind  
Wind Speed 3 mph ()    
Max Wind Speed 17 mph    
Max Gust Speed -    
Visibility 2.6 miles    
Events      
Averages and records for this station are not official NWS values.
T = Trace of Precipitation, MM = Missing Value Source: Averaged Metar Reports

Daily Weather History Graph

Daily Weather History Graph

Search for Another Location

Airport:

Trip Planner

Search our weather history database for the weather conditions in past years. The results will help you decide how hot, cold, wet, or windy it might be!

Date:

Astronomy

May. 23, 2013 Rise Set
Actual Time 5:29 AM IST 7:25 PM IST
Civil Twilight 5:02 AM IST 7:53 PM IST
Nautical Twilight 4:29 AM IST 8:26 PM IST
Astronomical Twilight 3:54 AM IST 9:01 PM IST
Moon 5:31 PM IST (5/23) 3:47 AM IST (5/23)
Length of Visible Light 14h 50m
Length of Day
13h 56m
Waxing Gibbous, 95% of the Moon is Illuminated
May 23
Waxing Gibbous
May 25
Full
Jun 1
Last Quarter
Jun 8
New
Jun 16
First Quarter

Hourly Weather History & Observations

Time (IST) Temp. Heat Index Dew Point Humidity Pressure Visibility Wind Dir Wind Speed Gust Speed Precip Events Conditions
12:00 AM 87.8 °F 85.7 °F 53.6 °F 31% 29.53 in 1.9 mi Calm Calm - N/A   Smoke
12:30 AM 86.0 °F 84.5 °F 55.4 °F 35% 29.53 in 1.9 mi Calm Calm - N/A   Smoke
1:00 AM 86.0 °F 84.5 °F 55.4 °F 35% 29.50 in 1.9 mi Variable 1.2 mph - N/A   Smoke
2:30 AM 87 °F - 67 °F 42% 29.45 in 1 mi Calm Calm - -   Smoke
3:00 AM 82.4 °F 81.4 °F 53.6 °F 37% 29.47 in 1.6 mi Calm Calm - N/A   Smoke
3:30 AM 82.4 °F 81.4 °F 53.6 °F 37% 29.47 in 1.6 mi Calm Calm - N/A   Smoke
4:00 AM 82.4 °F 81.7 °F 55.4 °F 39% 29.47 in 1.6 mi Variable 1.2 mph - N/A   Smoke
5:00 AM 80.6 °F 80.8 °F 57.2 °F 45% 29.47 in 1.6 mi Calm Calm - N/A   Smoke
5:30 AM 79 °F - 55 °F 34% 29.45 in 1 mi Calm Calm - -   Smoke
5:30 AM 78.8 °F - 55.4 °F 44% 29.47 in 1.6 mi Calm Calm - N/A   Smoke
7:00 AM 86.0 °F 84.9 °F 57.2 °F 37% 29.50 in 2.5 mi Calm Calm - N/A   Haze
8:00 AM 91.4 °F 89.1 °F 53.6 °F 28% 29.50 in 3.1 mi NNW 6.9 mph - N/A   Smoke
8:30 AM 94 °F - 55 °F 18% 29.47 in 2 mi NE 6.9 mph - -   Smoke
8:30 AM 95.0 °F 93.0 °F 55.4 °F 26% 29.53 in 2.5 mi Variable 6.9 mph - N/A   Smoke
9:00 AM 98.6 °F - 51.8 °F 21% 29.53 in 2.5 mi NNW 6.9 mph - N/A   Smoke
9:30 AM 100.4 °F - 50.0 °F 18% 29.53 in 2.5 mi Variable 8.1 mph - N/A   Smoke
10:00 AM 104.0 °F - 51.8 °F 17% 29.53 in 2.5 mi NW 9.2 mph - N/A   Smoke
12:30 PM 113.0 °F - 48.2 °F 12% 29.50 in 3.7 mi WNW 12.7 mph - N/A   Smoke
2:30 PM 116 °F - 46 °F 5% 29.39 in 2 mi WNW 17.3 mph - -  
2:30 PM 114.8 °F - 46.4 °F 10% 29.47 in 3.7 mi WNW 17.3 mph - N/A   Unknown
4:00 PM 114.8 °F - 44.6 °F 10% 29.44 in 3.7 mi WNW 12.7 mph - N/A   Unknown
6:30 PM 111.2 °F - 48.2 °F 12% 29.44 in 3.7 mi WNW 8.1 mph - N/A   Unknown
7:00 PM 105.8 °F - 50.0 °F 15% 29.44 in 3.7 mi WNW 6.9 mph - N/A   Unknown
7:30 PM 102.2 °F - 48.2 °F 16% 29.44 in 3.7 mi WNW 6.9 mph - N/A   Unknown
8:00 PM 100.4 °F - 50.0 °F 18% 29.44 in 3.7 mi West 4.6 mph - N/A   Unknown
8:30 PM 98 °F - 48 °F 11% 29.40 in 2 mi Calm Calm - -  
8:30 PM 98.6 °F - 48.2 °F 18% 29.44 in 3.7 mi Calm Calm - N/A   Unknown
9:00 PM 95.0 °F - 51.8 °F 23% 29.47 in 3.7 mi Variable 3.5 mph - N/A   Unknown
9:30 PM 93.2 °F - 50.0 °F 23% 29.47 in 3.7 mi Calm Calm - N/A   Unknown